CW3175 Weather Reports


time (UTC)temp
F
wind
direction
speed
knots
gust
knots
rain 1hr
in
rain 24hr
in
rain mn
in
humidity
%
barometer
mb
20170525103914 54 0 5.2 10.4 0.00 0.03 0.00 88 998.5
20170525103415 54 338 5.2 10.4 0.00 0.03 0.00 88 998.5
20170525102912 54 0 4.3 11.3 0.00 0.03 0.00 88 998.4
20170525102411 54 21 4.3 11.3 0.00 0.03 0.00 88 998.4
20170525101912 54 319 5.2 11.3 0.00 0.03 0.00 88 998.4
20170525101410 54 19 5.2 11.3 0.00 0.03 0.00 88 998.2
20170525100912 54 27 3.5 11.3 0.00 0.03 0.00 88 998.2
20170525100410 54 336 2.6 11.3 0.00 0.04 0.00 88 998.2
20170525095910 54 319 4.3 15.6 0.00 0.04 0.00 88 998.2
20170525095412 54 351 6.1 15.6 0.00 0.06 0.00 88 998.2
20170525094906 54 14 7.0 13.9 0.00 0.08 0.00 88 998.2
20170525094406 54 17 5.2 13.9 0.00 0.08 0.00 87 998.1
20170525093908 54 326 3.5 13.0 0.00 0.09 0.00 87 998.1
20170525093406 54 13 5.2 13.0 0.00 0.11 0.00 87 998.1
20170525092905 54 16 5.2 13.0 0.00 0.13 0.00 87 997.9
20170525092403 54 351 4.3 10.4 0.00 0.15 0.00 87 997.9
20170525091902 54 17 5.2 12.2 0.00 0.16 0.00 87 997.9
20170525091401 54 26 5.2 12.2 0.00 0.18 0.00 87 997.7
20170525090903 54 17 5.2 14.8 0.00 0.19 0.00 87 997.7
20170525090403 54 0 5.2 14.8 0.00 0.20 0.00 87 997.7
20170525085901 54 9 5.2 13.0 0.00 0.20 0.00 87 997.8
20170525085402 54 342 4.3 11.3 0.00 0.21 0.00 87 997.8
20170525084901 54 9 4.3 11.3 0.00 0.22 0.00 87 997.8
20170525084403 54 344 3.5 10.4 0.00 0.23 0.00 87 997.6
20170525083900 54 330 3.5 10.4 0.00 0.23 0.00 87 997.6
20170525083359 54 10 4.3 13.9 0.00 0.23 0.00 87 997.6
20170525082855 54 0 4.3 13.9 0.00 0.24 0.00 87 997.5
20170525082355 55 314 4.3 13.0 0.00 0.24 0.00 87 997.5
20170525081851 55 19 4.3 13.0 0.00 0.24 0.00 87 997.5
20170525081351 55 331 3.5 7.8 0.00 0.24 0.00 88 997.5
20170525080852 55 312 3.5 7.8 0.00 0.25 0.00 88 997.5
20170525080351 54 0 3.5 9.6 0.00 0.25 0.00 89 997.5
20170525075852 54 0 2.6 9.6 0.00 0.26 0.00 89 997.6
20170525075343 54 346 2.6 10.4 0.00 0.26 0.00 89 997.6
20170525074844 54 339 3.5 10.4 0.00 0.27 0.00 89 997.6
20170525074340 54 329 3.5 8.7 0.00 0.28 0.00 89 997.6
20170525073842 54 336 3.5 8.7 0.00 0.28 0.00 89 997.6
20170525073341 54 289 4.3 11.3 0.00 0.29 0.00 89 997.6
20170525072840 54 0 3.5 11.3 0.00 0.29 0.00 89 997.6
20170525072341 54 0 2.6 9.6 0.00 0.29 0.00 89 997.6
20170525071804 54 0 3.5 9.6 0.00 0.29 0.00 89 997.6
20170525071241 54 15 3.5 8.7 0.00 0.29 0.00 89 997.9
20170525070739 54 329 3.5 10.4 0.00 0.29 0.00 89 997.9
20170525070239 54 9 3.5 10.4 0.00 0.29 0.00 90 997.9
20170525065736 54 39 3.5 10.4 0.00 0.29 0.00 90 998.0
20170525065231 54 347 4.3 10.4 0.00 0.30 0.00 90 998.0
20170525064730 54 310 4.3 10.4 0.00 0.30 0.00 90 998.0
20170525064229 54 334 3.5 9.6 0.00 0.30 0.00 90 998.0
20170525063731 54 320 3.5 11.3 0.00 0.30 0.00 90 998.0
20170525063231 54 30 2.6 11.3 0.00 0.31 0.00 90 998.0
20170525062731 53 10 2.6 11.3 0.00 0.31 0.00 90 998.1
20170525062225 53 314 4.3 11.3 0.00 0.31 0.00 91 998.1
20170525061718 53 350 4.3 11.3 0.00 0.31 0.00 91 998.1
20170525061217 53 334 4.3 10.4 0.00 0.31 0.00 91 998.1
20170525060719 53 5 3.5 10.4 0.00 0.32 0.00 91 998.1
20170525060213 53 0 3.5 11.3 0.00 0.32 0.00 91 998.1
20170525055715 53 328 4.3 11.3 0.00 0.32 0.00 91 998.1
20170525055213 53 326 3.5 9.6 0.00 0.32 0.00 92 998.1
20170525054713 53 15 3.5 8.7 0.00 0.32 0.00 91 998.1
20170525054214 53 0 2.6 9.6 0.00 0.32 0.00 91 998.2
20170525053709 53 349 3.5 11.3 0.00 0.32 0.00 91 998.2
20170525053210 53 9 4.3 11.3 0.00 0.32 0.00 91 998.2
20170525052710 53 0 3.5 10.4 0.00 0.32 0.00 91 998.3
20170525052209 53 0 2.6 9.6 0.00 0.32 0.00 91 998.3
20170525051709 53 334 2.6 9.6 0.00 0.32 0.00 91 998.3
20170525051158 53 0 2.6 9.6 0.00 0.32 0.00 91 998.3
20170525050658 53 325 2.6 9.6 0.00 0.33 0.00 91 998.3
20170525050153 53 293 2.6 8.7 0.00 0.33 0.00 91 998.3
20170525045649 53 350 2.6 9.6 0.00 0.33 0.33 91 998.3
20170525045149 53 325 1.7 9.6 0.00 0.33 0.33 91 998.3
20170525044647 53 294 2.6 9.6 0.00 0.33 0.33 91 998.3
20170525044132 53 348 2.6 9.6 0.00 0.33 0.33 91 998.4
20170525043632 53 350 3.5 9.6 0.00 0.33 0.33 91 998.4
20170525043129 53 320 3.5 10.4 0.00 0.33 0.33 91 998.4
20170525042623 52 0 3.5 10.4 0.00 0.33 0.33 91 998.6
20170525042120 52 338 4.3 7.8 0.00 0.33 0.33 91 998.6
20170525041620 52 16 4.3 13.0 0.00 0.33 0.33 91 998.6
20170525041119 52 347 4.3 13.0 0.00 0.33 0.33 91 998.7
20170525040619 52 0 5.2 13.9 0.00 0.33 0.33 91 998.7
20170525040119 52 5 5.2 13.9 0.00 0.34 0.33 91 998.7
20170525035616 52 0 5.2 11.3 0.00 0.34 0.33 91 998.6
20170525035117 52 314 5.2 11.3 0.00 0.34 0.33 91 998.6
20170525034615 52 15 4.3 11.3 0.00 0.34 0.33 91 998.6
20170525034114 52 12 3.5 11.3 0.00 0.34 0.33 90 998.7
20170525033615 52 0 3.5 8.7 0.00 0.34 0.33 90 998.7
20170525033115 52 339 3.5 8.7 0.00 0.34 0.33 90 998.7
20170525032614 52 342 3.5 9.6 0.00 0.34 0.33 90 998.7
20170525032110 52 321 2.6 9.6 0.00 0.34 0.33 91 998.7
20170525031611 53 15 1.7 8.7 0.00 0.34 0.33 91 998.7
20170525031111 52 340 2.6 8.7 0.00 0.34 0.33 91 998.7
20170525030608 52 325 3.5 8.7 0.00 0.34 0.33 91 998.7
20170525030109 52 13 2.6 7.8 0.00 0.34 0.33 92 998.7
20170525025608 52 0 2.6 7.8 0.00 0.34 0.33 92 998.6
20170525025109 52 331 2.6 10.4 0.00 0.34 0.33 92 998.6
20170525024608 52 0 2.6 10.4 0.00 0.34 0.33 92 998.6
20170525024108 52 328 2.6 7.8 0.00 0.34 0.33 92 998.5
20170525023606 52 344 2.6 5.2 0.00 0.34 0.33 92 998.5
20170525023055 52 325 1.7 5.2 0.00 0.34 0.33 92 998.5
20170525022554 52 329 1.7 5.2 0.00 0.34 0.33 92 998.7
20170525022020 52 350 2.6 7.8 0.00 0.34 0.33 92 998.7
20170525021516 52 10 3.5 7.8 0.00 0.34 0.33 92 998.7
20170525021016 52 0 3.5 8.7 0.00 0.34 0.33 92 998.6
20170525020517 51 325 3.5 8.7 0.00 0.34 0.33 92 998.6
20170525020016 51 329 2.6 8.7 0.00 0.34 0.33 92 998.6
20170525015516 51 0 2.6 10.4 0.00 0.34 0.33 92 998.5
20170525015014 51 335 2.6 10.4 0.00 0.34 0.33 92 998.5
20170525014515 52 314 1.7 6.1 0.00 0.34 0.33 92 998.5
20170525014014 52 0 2.6 9.6 0.00 0.34 0.33 92 998.5
20170525013510 52 25 3.5 9.6 0.00 0.34 0.33 92 998.5
20170525013006 52 13 3.5 8.7 0.00 0.34 0.33 92 998.5
20170525012507 52 311 2.6 8.7 0.00 0.34 0.33 92 998.7
20170525012006 52 14 2.6 8.7 0.00 0.34 0.33 92 998.7
20170525011504 52 0 3.5 8.7 0.00 0.34 0.33 92 998.7
20170525011004 52 0 4.3 10.4 0.00 0.34 0.33 91 998.6
20170525010446 52 0 4.3 10.4 0.00 0.34 0.33 91 998.6
20170525005945 52 0 3.5 8.7 0.00 0.34 0.33 90 998.6
20170525005443 52 11 2.6 8.7 0.00 0.34 0.33 90 998.7
20170525004940 53 351 2.6 8.7 0.00 0.34 0.33 90 998.7
20170525004435 53 328 2.6 8.7 0.00 0.34 0.33 90 998.7
20170525003932 53 13 2.6 10.4 0.00 0.34 0.33 90 998.8
20170525003432 53 0 4.3 12.2 0.00 0.34 0.33 90 998.8
20170525002930 53 333 4.3 12.2 0.00 0.34 0.33 89 998.8
20170525002426 53 9 4.3 10.4 0.00 0.34 0.33 89 998.8
20170525001927 53 340 4.3 10.4 0.00 0.34 0.33 89 998.8
20170525001425 53 0 3.5 13.9 0.00 0.34 0.33 89 998.5
20170525000926 53 5 3.5 13.9 0.00 0.34 0.33 89 998.5
20170525000420 53 0 4.3 10.4 0.01 0.34 0.33 89 998.5
20170524235901 53 0 4.3 11.3 0.01 0.35 0.33 89 998.3
20170524235400 54 46 4.3 11.3 0.01 0.35 0.33 90 998.3
20170524234900 54 22 2.6 9.6 0.02 0.35 0.33 90 998.3
20170524234400 54 10 3.5 10.4 0.02 0.35 0.33 91 998.3
20170524233856 53 351 4.3 12.2 0.02 0.36 0.33 91 998.3
20170524233356 53 339 4.3 12.2 0.02 0.36 0.33 90 998.3
20170524232855 54 331 3.5 10.4 0.02 0.36 0.33 91 998.4
20170524232348 54 14 3.5 10.4 0.02 0.36 0.33 91 998.4
20170524231848 54 0 5.2 13.9 0.02 0.36 0.33 90 998.4
20170524231346 54 21 5.2 13.9 0.02 0.36 0.33 90 998.5
20170524230846 54 16 4.3 12.2 0.02 0.36 0.33 91 998.5
20170524230346 54 35 4.3 12.2 0.01 0.35 0.32 90 998.5
20170524225845 54 11 3.5 9.6 0.01 0.35 0.32 90 998.5
20170524225344 54 0 3.5 10.4 0.01 0.35 0.32 89 998.5
20170524224842 54 351 5.2 13.0 0.00 0.35 0.31 88 998.5
20170524224342 55 323 5.2 13.0 0.00 0.35 0.31 87 998.5
20170524223842 55 22 5.2 15.6 0.00 0.36 0.31 86 998.5
20170524223338 55 36 5.2 15.6 0.00 0.37 0.31 84 998.5
20170524222838 56 5 4.3 11.3 0.00 0.40 0.31 82 998.4
20170524222338 56 351 4.3 10.4 0.00 0.40 0.31 81 998.4
20170524221837 56 28 4.3 11.3 0.00 0.41 0.31 81 998.4
20170524221337 56 0 4.3 12.2 0.00 0.44 0.31 81 998.3
20170524220837 57 10 5.2 12.2 0.00 0.47 0.31 81 998.3
20170524220330 57 330 5.2 12.2 0.00 0.48 0.31 81 998.3
20170524215828 57 32 5.2 12.2 0.00 0.50 0.31 80 998.1
20170524215325 57 0 4.3 9.6 0.00 0.50 0.31 80 998.1
20170524214825 57 327 4.3 10.4 0.00 0.50 0.31 79 998.1
20170524214326 57 22 5.2 13.0 0.00 0.50 0.31 78 998.0
20170524213826 58 32 5.2 13.0 0.00 0.51 0.31 78 998.0
20170524213326 58 342 6.1 13.0 0.00 0.51 0.31 78 998.0
20170524212823 58 0 5.2 13.0 0.00 0.51 0.31 78 997.9
20170524212317 58 9 5.2 12.2 0.00 0.51 0.31 78 997.9
20170524211818 58 13 5.2 12.2 0.00 0.51 0.31 78 997.9
20170524211318 58 346 5.2 13.9 0.00 0.51 0.31 77 997.9
20170524210818 59 48 6.1 13.9 0.00 0.51 0.31 78 997.9
20170524210315 58 29 6.1 13.9 0.00 0.51 0.31 78 997.9
20170524205813 58 309 6.1 13.9 0.00 0.51 0.31 78 997.9
20170524205314 58 0 5.2 11.3 0.00 0.51 0.31 77 997.9
20170524204810 58 15 6.1 12.2 0.00 0.51 0.31 77 997.9
20170524204309 58 337 7.0 13.0 0.00 0.51 0.31 78 998.0
20170524203806 59 0 5.2 13.0 0.00 0.51 0.31 76 998.0
20170524203306 59 25 5.2 11.3 0.00 0.51 0.31 76 998.0
20170524202806 59 5 6.1 11.3 0.00 0.51 0.31 76 998.0
20170524202301 60 27 6.1 13.0 0.00 0.52 0.31 75 998.0
20170524201801 60 35 6.1 13.0 0.00 0.52 0.31 75 998.0
20170524201302 60 312 7.0 13.9 0.00 0.52 0.31 74 998.0
20170524200802 60 338 6.1 13.9 0.00 0.52 0.31 74 998.0
20170524200301 60 23 4.3 11.3 0.00 0.52 0.31 73 998.0
20170524195801 60 0 4.3 10.4 0.00 0.52 0.31 75 998.0
20170524195258 60 0 5.2 11.3 0.00 0.52 0.31 75 998.0
20170524194758 60 15 5.2 11.3 0.00 0.52 0.31 74 998.0
20170524194257 60 40 5.2 11.3 0.00 0.52 0.31 73 997.9
20170524193757 60 296 6.1 12.2 0.00 0.52 0.31 75 997.9
20170524193258 60 350 5.2 12.2 0.00 0.52 0.31 77 997.9
20170524192756 60 0 5.2 12.2 0.00 0.52 0.31 76 997.9
20170524192255 60 19 6.1 13.0 0.00 0.52 0.31 76 997.9
20170524191755 60 31 5.2 13.0 0.00 0.52 0.31 77 997.9
20170524191251 60 12 4.3 12.2 0.00 0.52 0.31 77 998.0
20170524190749 59 0 5.2 12.2 0.00 0.52 0.31 78 998.0
20170524190250 59 38 6.1 13.0 0.00 0.52 0.31 78 998.0
20170524185748 59 16 6.1 13.0 0.00 0.52 0.31 79 998.0
20170524185247 58 314 7.0 12.2 0.00 0.52 0.31 80 998.0
20170524184747 58 24 6.1 13.9 0.00 0.52 0.31 80 998.0
20170524184246 58 32 5.2 13.9 0.00 0.52 0.31 81 998.1
20170524183746 58 11 7.0 14.8 0.00 0.52 0.31 82 998.1
20170524183245 58 16 7.0 14.8 0.00 0.52 0.31 82 998.1
20170524182745 58 17 7.0 13.0 0.00 0.52 0.31 82 998.3
20170524182245 57 0 6.1 12.2 0.00 0.52 0.31 82 998.3
20170524181746 58 24 5.2 12.2 0.00 0.52 0.31 82 998.3
20170524181245 57 44 6.1 13.9 0.00 0.52 0.31 82 998.4
20170524180745 57 0 6.1 13.9 0.00 0.52 0.31 82 998.4
20170524180245 57 33 5.2 13.0 0.00 0.52 0.31 82 998.4
20170524175746 57 17 6.1 13.0 0.00 0.52 0.31 82 998.4
20170524175244 57 26 6.1 13.0 0.00 0.52 0.31 82 998.4
20170524174719 57 28 7.0 12.2 0.00 0.52 0.31 82 998.4
20170524174209 57 42 7.0 13.9 0.00 0.52 0.31 82 998.5
20170524173703 58 30 6.1 13.9 0.00 0.52 0.31 82 998.5
20170524173200 57 30 7.0 13.0 0.00 0.52 0.31 82 998.5
20170524172659 57 31 8.7 13.9 0.00 0.52 0.31 82 998.4
20170524172157 57 40 7.8 13.9 0.00 0.52 0.31 82 998.4
20170524171657 57 343 6.1 12.2 0.00 0.52 0.31 82 998.4
20170524171157 58 23 6.1 13.9 0.00 0.52 0.31 82 998.3
20170524170655 58 53 7.0 13.9 0.00 0.52 0.31 82 998.3
20170524170155 58 5 7.0 13.0 0.00 0.52 0.31 82 998.3
20170524165655 58 28 7.0 14.8 0.00 0.52 0.31 82 998.3
20170524165155 57 40 7.0 14.8 0.00 0.53 0.31 82 998.3
20170524164655 57 36 6.1 12.2 0.00 0.53 0.31 83 998.3
20170524164153 57 19 6.1 13.9 0.00 0.53 0.31 83 998.5
20170524163651 57 42 6.1 13.9 0.00 0.53 0.31 84 998.5
20170524163151 57 37 5.2 12.2 0.00 0.53 0.31 84 998.5
20170524162649 57 19 6.1 13.9 0.00 0.53 0.31 85 998.6
20170524162150 56 26 7.8 13.9 0.00 0.53 0.31 85 998.6
20170524161649 56 49 7.0 13.9 0.00 0.53 0.31 86 998.6
20170524161148 56 42 7.0 14.8 0.00 0.53 0.31 86 998.6
20170524160649 56 0 7.8 14.8 0.00 0.53 0.31 87 998.6
20170524160149 56 34 8.7 20.0 0.00 0.53 0.31 87 998.6
20170524155648 56 34 8.7 20.0 0.00 0.53 0.31 88 998.7
20170524155145 55 24 7.8 15.6 0.00 0.53 0.31 88 998.7
20170524154645 55 10 7.0 14.8 0.00 0.53 0.31 89 998.7
20170524154145 55 34 7.8 14.8 0.00 0.53 0.31 89 999.1
20170524153644 55 34 7.8 13.9 0.00 0.53 0.31 89 999.1
20170524153145 55 19 7.0 13.9 0.00 0.53 0.31 89 999.1
20170524152645 55 30 7.0 15.6 0.00 0.53 0.31 89 999.1
20170524152141 55 0 7.0 15.6 0.00 0.53 0.31 90 999.1
20170524151640 55 14 7.0 14.8 0.00 0.53 0.31 89 999.1
20170524151140 55 41 7.0 14.8 0.00 0.53 0.31 90 999.2
20170524150635 55 59 7.0 14.8 0.00 0.53 0.31 90 999.2
20170524150133 55 17 7.0 14.8 0.00 0.53 0.31 90 999.2
20170524145633 55 46 7.8 15.6 0.00 0.53 0.31 90 999.1
20170524145131 55 13 7.8 15.6 0.00 0.53 0.31 90 999.1
20170524144630 55 37 7.0 13.9 0.00 0.53 0.31 90 999.1
20170524144127 55 35 8.7 15.6 0.00 0.53 0.31 90 999.2
20170524144025 56 22 3.5 9.6 0.05 0.36 0.11 93 1000.3
20170524144021 56 19 4.3 8.7 0.05 0.36 0.10 93 1000.4
20170524144016 56 18 3.5 7.8 0.05 0.36 0.10 93 1000.4
20170524144012 56 39 3.5 6.1 0.05 0.35 0.10 93 1000.4
20170524144008 56 11 1.7 6.1 0.05 0.35 0.09 93 1000.4
20170524144004 56 0 2.6 8.7 0.05 0.35 0.09 93 1000.4
20170524143959 56 351 3.5 8.7 0.05 0.35 0.09 93 1000.4
20170524143955 56 350 3.5 7.0 0.05 0.35 0.09 93 1000.5
20170524143952 56 24 2.6 6.1 0.04 0.34 0.08 94 1000.5
20170524143947 56 40 2.6 7.0 0.03 0.33 0.07 94 1000.6
20170524143943 56 32 1.7 7.0 0.04 0.33 0.07 94 1000.6
20170524143939 56 37 0.0 4.3 0.03 0.32 0.06 95 1000.6
20170524143935 56 37 0.9 7.8 0.02 0.31 0.05 95 1000.8
20170524143931 56 37 1.7 7.8 0.02 0.31 0.05 96 1000.8
20170524143927 56 36 0.9 5.2 0.02 0.30 0.05 96 1000.8
20170524143922 56 36 1.7 5.2 0.02 0.30 0.04 96 1001.1
20170524143918 56 36 0.9 5.2 0.02 0.30 0.04 96 1001.1
20170524143914 56 38 0.0 3.5 0.02 0.30 0.04 96 1001.1
20170524143910 56 38 0.0 6.1 0.02 0.30 0.04 96 1001.0
20170524143906 56 38 0.9 6.1 0.02 0.30 0.04 96 1001.0
20170524143902 56 38 0.0 6.1 0.03 0.30 0.04 96 1001.0
20170524143858 57 42 0.9 5.2 0.03 0.30 0.04 96 1001.1
20170524143853 57 43 0.9 5.2 0.02 0.29 0.03 96 1001.1
20170524143849 57 42 0.9 6.1 0.02 0.29 0.03 96 1001.1
20170524143845 57 54 0.9 7.8 0.02 0.29 0.03 96 1001.5
20170524143840 56 56 0.9 7.8 0.02 0.29 0.03 96 1001.5
20170524143836 56 60 0.0 1.7 0.01 0.28 0.02 96 1001.5
20170524143832 56 40 0.0 0.0 0.01 0.28 0.02 96 1001.5
20170524143826 56 40 0.0 5.2 0.01 0.28 0.02 96 1001.5
20170524143822 55 44 7.0 13.0 0.00 0.57 0.31 87 999.1
20170524143818 55 49 6.1 13.9 0.00 0.57 0.31 88 999.2
20170524143814 56 42 5.2 14.8 0.00 0.57 0.31 88 999.2
20170524143810 56 50 6.1 14.8 0.00 0.57 0.31 88 999.2
20170524143806 56 13 7.0 13.9 0.00 0.57 0.31 87 999.2
20170524143801 56 32 7.0 13.9 0.00 0.57 0.31 88 999.2
20170524143755 56 56 6.1 13.9 0.00 0.57 0.31 88 999.2
20170524143751 56 0 6.1 13.9 0.00 0.57 0.31 89 999.1
20170524143745 55 26 7.0 13.0 0.00 0.55 0.31 88 999.2
20170524143741 56 15 7.0 13.0 0.00 0.57 0.31 88 999.1
20170524143737 56 19 7.8 13.0 0.00 0.57 0.31 89 999.1
20170524143732 56 0 7.8 13.9 0.00 0.57 0.31 89 999.1
20170524143727 56 23 7.0 17.4 0.00 0.57 0.31 90 999.1
20170524143723 56 26 7.0 17.4 0.00 0.57 0.31 91 999.1
20170524143719 56 22 7.8 16.5 0.00 0.57 0.31 91 999.1
20170524143715 55 56 7.0 16.5 0.00 0.55 0.31 89 999.2
20170524143711 55 39 7.8 16.5 0.00 0.57 0.31 92 999.1
20170524143707 55 0 6.1 12.2 0.00 0.57 0.31 92 999.1
20170524143703 55 0 5.2 11.3 0.00 0.57 0.31 92 999.3
20170524143658 55 49 5.2 14.8 0.00 0.57 0.31 92 999.3
20170524143654 56 33 6.1 14.8 0.00 0.57 0.31 93 999.3
20170524143649 56 0 6.1 13.9 0.00 0.57 0.31 93 999.5
20170524143646 55 17 7.0 16.5 0.00 0.54 0.31 89 999.2
20170524143642 56 0 6.1 12.2 0.00 0.57 0.31 93 999.5
20170524143637 56 22 5.2 11.3 0.01 0.57 0.31 93 999.5
20170524143633 56 0 6.1 13.0 0.01 0.57 0.31 94 999.2
20170524143629 55 26 8.7 16.5 0.00 0.54 0.31 90 999.2
20170524143624 56 34 7.0 14.8 0.01 0.57 0.31 94 999.2
20170524143619 56 349 5.2 14.8 0.01 0.57 0.31 94 999.2
20170524143615 56 32 3.5 10.4 0.01 0.57 0.31 94 999.5
20170524143611 56 32 3.5 8.7 0.01 0.57 0.31 94 999.5
20170524143607 56 348 3.5 9.6 0.01 0.57 0.31 95 999.5
20170524143603 56 30 2.6 9.6 0.01 0.57 0.31 95 999.5
20170524143559 56 45 2.6 9.6 0.01 0.57 0.31 95 999.5
20170524143553 55 21 4.3 10.4 0.01 0.57 0.31 95 999.5
20170524143549 55 0 3.5 10.4 0.01 0.57 0.31 96 999.2
20170524143544 55 13 2.6 7.0 0.01 0.57 0.31 96 999.2
20170524143540 56 0 2.6 6.1 0.01 0.56 0.30 96 999.2
20170524143536 56 0 1.7 5.2 0.02 0.56 0.30 96 999.6
20170524143533 56 16 2.6 7.8 0.04 0.56 0.30 96 999.6
20170524143528 56 0 3.5 8.7 0.05 0.56 0.30 96 999.6
20170524143523 56 0 3.5 8.7 0.06 0.56 0.30 96 999.6
20170524143519 56 351 1.7 8.7 0.07 0.56 0.30 96 999.6
20170524143515 56 0 1.7 5.2 0.09 0.56 0.30 96 999.6
20170524143510 55 16 7.8 14.8 0.00 0.56 0.31 88 999.1
20170524143506 56 0 2.6 7.0 0.12 0.56 0.30 96 1000.0
20170524143502 56 0 0.9 7.0 0.13 0.56 0.30 96 1000.0
20170524143458 56 326 0.0 2.6 0.15 0.56 0.30 96 1000.0
20170524143454 56 324 0.0 5.2 0.16 0.56 0.30 96 1000.2
20170524143450 56 324 0.0 5.2 0.17 0.56 0.30 95 1000.2
20170524143445 56 30 0.0 0.0 0.16 0.55 0.29 95 1000.2
20170524143441 56 0 7.8 14.8 0.00 0.56 0.31 87 999.1
20170524143434 56 31 0.0 0.0 0.16 0.54 0.28 95 1000.1
20170524143429 56 30 0.0 0.0 0.15 0.52 0.26 95 1000.1
20170524143424 56 31 0.0 0.0 0.14 0.51 0.25 94 1000.1
20170524143415 56 31 0.0 0.0 0.14 0.50 0.24 94 1000.3
20170524143411 55 74 7.0 14.8 0.00 0.56 0.31 87 999.1
20170524143407 56 33 0.0 0.0 0.13 0.49 0.23 94 1000.3
20170524143402 56 33 0.9 5.2 0.10 0.46 0.21 94 1000.3
20170524143356 56 32 2.6 8.7 0.09 0.44 0.18 94 1000.2
20170524143352 56 26 3.5 8.7 0.08 0.43 0.17 94 1000.2
20170524143348 56 19 2.6 8.7 0.06 0.41 0.15 94 1000.2
20170524143344 56 30 3.5 8.7 0.05 0.40 0.14 94 1000.2
20170524143340 55 47 7.8 15.6 0.00 0.56 0.31 87 999.1
20170524143335 56 12 3.5 10.4 0.05 0.39 0.13 93 1000.2
20170524143331 56 36 2.6 10.4 0.06 0.39 0.13 93 1000.2
20170524143327 56 350 4.3 11.3 0.05 0.38 0.12 93 1000.3
20170524143323 56 40 4.3 11.3 0.05 0.37 0.11 93 1000.3
20170524143319 55 11 7.8 15.6 0.00 0.56 0.31 87 999.1
20170524143315 55 5 7.0 13.0 0.00 0.55 0.31 88 999.2